GFSMA_prec_precacc24_171.txt.gz
Total_Precipitation_Accumulation
0.00 0.00 0.00 0.00 0.00 0.00 0.00 0.00 0.00 0.04 0.08 0.11 0.07 0.09 0.15 0.24 0.20 0.09 0.18 0.33 0.38 0.17 0.22 0.28 0.27 0.25 0.17 0.13 0.08 0.08 0.08 0.09 0.14 0.23 0.16 0.03 0.01 0.03 0.17 0.35 0.47 0.42 0.49
0.00 0.00 0.00 0.00 0.00 0.00 0.00 0.00 0.00 0.00 0.02 0.07 0.12 0.10 0.03 0.14 0.18 0.26 0.44 0.47 0.47 0.31 0.13 0.22 0.26 0.26 0.21 0.19 0.13 0.06 0.08 0.09 0.13 0.14 0.12 0.10 0.04 0.01 0.02 0.12 0.31 0.31 0.36
0.00 0.00 0.00 0.00 0.00 0.00 0.00 0.00 0.00 0.00 0.00 0.01 0.05 0.08 0.04 0.02 0.05 0.21 0.53 0.32 0.31 0.29 0.16 0.13 0.16 0.17 0.21 0.26 0.20 0.10 0.10 0.09 0.11 0.12 0.09 0.10 0.11 0.07 0.03 0.02 0.10 0.19 0.27
0.00 0.00 0.00 0.00 0.00 0.00 0.00 0.00 0.00 0.00 0.00 0.00 0.00 0.04 0.06 0.04 0.02 0.03 0.31 0.29 0.14 0.13 0.16 0.13 0.15 0.25 0.17 0.15 0.21 0.18 0.19 0.13 0.11 0.09 0.07 0.12 0.13 0.13 0.11 0.03 0.02 0.08 0.14
0.00 0.00 0.00 0.00 0.00 0.00 0.00 0.00 0.00 0.00 0.00 0.00 0.01 0.00 0.04 0.10 0.06 0.03 0.13 0.28 0.13 0.10 0.09 0.16 0.16 0.19 0.23 0.22 0.20 0.22 0.31 0.38 0.22 0.20 0.15 0.23 0.14 0.17 0.24 0.14 0.04 0.02 0.07
0.00 0.00 0.00 0.00 0.00 0.00 0.00 0.00 0.00 0.00 0.00 0.00 0.00 0.01 0.01 0.02 0.07 0.10 0.07 0.12 0.28 0.20 0.19 0.23 0.37 0.33 0.30 0.29 0.32 0.32 0.31 0.33 0.31 0.33 0.27 0.28 0.28 0.25 0.37 0.33 0.18 0.08 0.04
0.00 0.00 0.00 0.00 0.00 0.00 0.00 0.00 0.00 0.00 0.00 0.00 0.01 0.01 0.01 0.01 0.03 0.06 0.08 0.14 0.29 0.23 0.27 0.33 0.39 0.44 0.35 0.39 0.39 0.42 0.44 0.35 0.31 0.35 0.43 0.36 0.39 0.35 0.36 0.41 0.35 0.25 0.12
0.00 0.00 0.00 0.00 0.00 0.01 0.01 0.01 0.01 0.01 0.01 0.00 0.02 0.02 0.02 0.01 0.01 0.03 0.08 0.12 0.32 0.35 0.34 0.38 0.41 0.34 0.27 0.32 0.39 0.53 0.55 0.54 0.45 0.42 0.57 0.61 0.60 0.41 0.32 0.30 0.32 0.35 0.26
0.00 0.00 0.00 0.00 0.01 0.01 0.01 0.01 0.01 0.02 0.02 0.00 0.01 0.06 0.07 0.03 0.01 0.01 0.02 0.05 0.19 0.42 0.61 0.49 0.48 0.27 0.26 0.30 0.33 0.38 0.38 0.42 0.50 0.44 0.57 0.67 0.65 0.42 0.30 0.28 0.23 0.25 0.32
0.00 0.00 0.00 0.00 0.01 0.01 0.01 0.01 0.01 0.02 0.03 0.02 0.01 0.02 0.06 0.09 0.10 0.04 0.01 0.10 0.29 0.26 0.23 0.19 0.23 0.20 0.29 0.39 0.38 0.37 0.38 0.52 0.45 0.41 0.47 0.74 0.65 0.48 0.28 0.18 0.16 0.18 0.24
0.00 0.00 0.00 0.00 0.00 0.01 0.01 0.01 0.01 0.02 0.03 0.03 0.03 0.02 0.03 0.04 0.07 0.09 0.04 0.03 0.08 0.18 0.29 0.38 0.30 0.26 0.29 0.46 0.52 0.53 0.47 0.66 0.89 0.73 0.51 0.56 0.66 0.81 0.72 0.57 0.42 0.26 0.22
0.00 0.00 0.00 0.01 0.01 0.01 0.01 0.01 0.01 0.02 0.02 0.04 0.03 0.02 0.04 0.08 0.08 0.11 0.10 0.07 0.05 0.04 0.11 0.17 0.33 0.32 0.28 0.28 0.29 0.32 0.34 0.37 0.49 0.89 0.94 0.77 0.79 0.90 1.28 1.05 1.06 1.02 0.73
0.00 0.01 0.00 0.01 0.01 0.01 0.01 0.00 0.01 0.02 0.03 0.06 0.06 0.04 0.02 0.06 0.11 0.13 0.14 0.08 0.08 0.09 0.12 0.19 0.23 0.22 0.16 0.24 0.26 0.25 0.27 0.34 0.35 0.50 0.72 0.85 0.81 0.94 1.22 1.84 1.76 1.42 1.26
0.01 0.00 0.01 0.01 0.01 0.00 0.00 0.00 0.01 0.02 0.02 0.04 0.05 0.06 0.05 0.05 0.10 0.15 0.21 0.19 0.12 0.05 0.06 0.22 0.30 0.36 0.35 0.33 0.31 0.37 0.37 0.38 0.32 0.32 0.39 0.55 0.77 0.87 1.08 1.39 2.07 2.62 2.32
0.01 0.00 0.01 0.01 0.01 0.01 0.00 0.01 0.02 0.04 0.02 0.04 0.07 0.07 0.10 0.07 0.09 0.12 0.16 0.23 0.31 0.16 0.03 0.02 0.15 0.34 0.43 0.54 0.39 0.41 0.44 0.44 0.43 0.37 0.37 0.32 0.35 0.43 0.61 0.93 1.25 1.45 1.54
0.01 0.00 0.01 0.01 0.01 0.01 0.01 0.01 0.03 0.05 0.06 0.06 0.05 0.04 0.06 0.06 0.08 0.10 0.15 0.18 0.24 0.33 0.29 0.07 0.05 0.10 0.18 0.31 0.43 0.59 0.56 0.46 0.47 0.54 0.62 0.62 0.45 0.36 0.31 0.33 0.47 0.58 0.67
0.01 0.00 0.01 0.02 0.02 0.01 0.02 0.04 0.04 0.05 0.04 0.06 0.07 0.08 0.06 0.07 0.11 0.23 0.21 0.13 0.16 0.25 0.27 0.16 0.18 0.22 0.28 0.24 0.26 0.41 0.48 0.52 0.58 0.63 0.68 0.85 0.86 0.71 0.60 0.52 0.41 0.37 0.39
0.00 0.01 0.00 0.01 0.02 0.03 0.05 0.11 0.16 0.11 0.16 0.14 0.16 0.20 0.27 0.24 0.21 0.11 0.17 0.34 0.23 0.15 0.21 0.15 0.20 0.29 0.33 0.58 0.59 0.63 0.56 0.51 0.53 0.64 0.53 0.67 0.81 0.72 0.76 0.89 0.93 0.96 0.81
0.00 0.00 0.01 0.02 0.05 0.05 0.08 0.21 0.28 0.15 0.30 0.28 0.34 0.41 0.44 0.41 0.40 0.53 0.39 0.21 0.24 0.25 0.22 0.19 0.18 0.26 0.43 0.64 1.02 1.35 1.35 1.09 1.07 0.89 0.62 0.59 0.71 0.86 0.82 0.80 0.78 0.79 0.76
0.00 0.00 0.00 0.01 0.04 0.03 0.05 0.09 0.15 0.16 0.18 0.25 0.19 0.24 0.25 0.28 0.39 0.42 0.53 0.67 0.45 0.27 0.27 0.25 0.24 0.22 0.23 0.43 0.62 1.04 1.76 1.68 1.36 1.09 0.91 0.94 0.95 0.78 0.78 0.72 0.73 0.70 0.56
0.00 0.00 0.00 0.00 0.01 0.01 0.01 0.04 0.05 0.05 0.06 0.06 0.03 0.03 0.06 0.07 0.11 0.20 0.26 0.36 0.46 0.43 0.37 0.33 0.31 0.28 0.28 0.23 0.48 0.80 1.31 1.64 1.62 1.41 1.06 0.79 0.76 0.95 0.91 0.73 0.68 0.67 0.70
0.00 0.00 0.00 0.00 0.01 0.01 0.00 0.00 0.01 0.01 0.02 0.03 0.02 0.02 0.01 0.01 0.02 0.04 0.06 0.14 0.25 0.37 0.33 0.32 0.45 0.46 0.38 0.36 0.32 0.54 0.92 1.09 1.20 1.35 1.48 1.23 0.98 0.85 0.98 1.07 1.07 0.92 0.74
0.00 0.00 0.00 0.00 0.00 0.00 0.00 0.00 0.00 0.00 0.00 0.01 0.00 0.00 0.00 0.01 0.01 0.02 0.03 0.02 0.05 0.12 0.29 0.37 0.32 0.42 0.56 0.60 0.50 0.37 0.57 1.01 1.18 1.29 1.31 1.42 1.32 1.22 1.03 0.93 0.98 0.94 0.96
0.00 0.00 0.00 0.00 0.00 0.00 0.00 0.00 0.00 0.00 0.00 0.00 0.00 0.00 0.00 0.00 0.00 0.00 0.00 0.01 0.04 0.11 0.16 0.28 0.45 0.51 0.55 0.57 0.60 0.66 0.54 0.61 0.79 0.87 1.07 1.34 1.39 1.46 1.38 1.23 1.07 1.01 0.98
0.00 0.00 0.00 0.00 0.00 0.00 0.00 0.00 0.00 0.00 0.00 0.00 0.00 0.00 0.00 0.00 0.01 0.01 0.01 0.00 0.01 0.03 0.07 0.10 0.15 0.20 0.28 0.31 0.35 0.38 0.50 0.55 0.59 0.63 0.63 0.81 0.98 1.30 1.36 1.29 1.24 1.15 1.15
0.00 0.00 0.00 0.00 0.00 0.00 0.00 0.01 0.00 0.00 0.00 0.00 0.00 0.01 0.00 0.00 0.00 0.00 0.01 0.01 0.02 0.03 0.02 0.02 0.03 0.03 0.03 0.04 0.07 0.13 0.23 0.33 0.51 0.59 0.57 0.67 0.69 0.78 0.91 0.98 1.05 1.04 1.09

GFSMA_prec_precacc24_174.txt.gz
Total_Precipitation_Accumulation
0.00 0.00 0.00 0.00 0.00 0.00 0.00 0.00 0.00 0.00 0.00 0.00 0.01 0.08 0.11 0.13 0.12 0.06 0.17 0.32 0.36 0.15 0.19 0.25 0.25 0.24 0.15 0.13 0.07 0.06 0.07 0.10 0.13 0.22 0.20 0.06 0.03 0.04 0.17 0.32 0.42 0.40 0.49
0.00 0.00 0.00 0.00 0.00 0.00 0.00 0.00 0.00 0.00 0.00 0.00 0.00 0.01 0.01 0.08 0.09 0.15 0.38 0.47 0.45 0.27 0.13 0.20 0.25 0.25 0.20 0.19 0.13 0.06 0.08 0.07 0.11 0.17 0.15 0.17 0.11 0.05 0.03 0.11 0.29 0.30 0.36
0.00 0.00 0.00 0.00 0.00 0.00 0.00 0.00 0.00 0.00 0.00 0.00 0.00 0.00 0.00 0.01 0.02 0.12 0.41 0.32 0.30 0.29 0.16 0.12 0.15 0.17 0.20 0.25 0.20 0.10 0.09 0.08 0.09 0.15 0.13 0.16 0.22 0.14 0.08 0.05 0.10 0.19 0.27
0.00 0.00 0.00 0.00 0.00 0.00 0.00 0.00 0.00 0.00 0.00 0.00 0.00 0.00 0.00 0.00 0.00 0.02 0.21 0.25 0.13 0.13 0.16 0.13 0.15 0.25 0.17 0.14 0.20 0.18 0.19 0.11 0.09 0.12 0.15 0.23 0.33 0.26 0.20 0.10 0.06 0.09 0.14
0.00 0.00 0.00 0.00 0.00 0.00 0.00 0.00 0.00 0.00 0.00 0.00 0.00 0.00 0.00 0.01 0.00 0.01 0.09 0.18 0.11 0.07 0.08 0.16 0.16 0.19 0.23 0.22 0.20 0.22 0.30 0.38 0.21 0.20 0.20 0.47 0.45 0.39 0.36 0.24 0.11 0.09 0.09
0.00 0.00 0.00 0.00 0.00 0.00 0.00 0.00 0.00 0.00 0.00 0.00 0.00 0.00 0.00 0.00 0.01 0.00 0.01 0.05 0.19 0.17 0.16 0.21 0.36 0.33 0.30 0.29 0.32 0.32 0.30 0.33 0.31 0.33 0.28 0.37 0.53 0.56 0.58 0.46 0.29 0.16 0.10
0.00 0.00 0.00 0.00 0.00 0.00 0.00 0.00 0.00 0.00 0.00 0.00 0.00 0.00 0.00 0.00 0.00 0.01 0.01 0.02 0.10 0.16 0.24 0.26 0.35 0.43 0.34 0.38 0.39 0.43 0.45 0.36 0.33 0.36 0.42 0.35 0.48 0.56 0.62 0.60 0.49 0.39 0.20
0.00 0.00 0.00 0.00 0.00 0.00 0.00 0.00 0.00 0.01 0.01 0.00 0.01 0.01 0.01 0.00 0.00 0.00 0.01 0.01 0.03 0.11 0.23 0.29 0.31 0.29 0.26 0.31 0.40 0.53 0.56 0.55 0.45 0.42 0.58 0.61 0.62 0.52 0.49 0.58 0.53 0.49 0.41
0.00 0.00 0.00 0.00 0.00 0.00 0.00 0.00 0.01 0.01 0.02 0.00 0.01 0.05 0.05 0.02 0.00 0.00 0.00 0.00 0.01 0.02 0.07 0.19 0.28 0.19 0.23 0.28 0.33 0.38 0.40 0.44 0.51 0.44 0.57 0.68 0.66 0.44 0.43 0.52 0.54 0.42 0.40
0.00 0.00 0.00 0.00 0.00 0.00 0.00 0.00 0.01 0.01 0.02 0.02 0.01 0.02 0.04 0.07 0.07 0.03 0.01 0.02 0.03 0.03 0.04 0.07 0.15 0.14 0.23 0.34 0.38 0.37 0.41 0.53 0.46 0.42 0.48 0.74 0.65 0.49 0.30 0.29 0.41 0.45 0.35
0.00 0.00 0.00 0.00 0.00 0.01 0.00 0.00 0.01 0.01 0.02 0.02 0.02 0.02 0.02 0.01 0.02 0.05 0.02 0.02 0.04 0.04 0.05 0.06 0.12 0.16 0.26 0.38 0.48 0.54 0.50 0.67 0.89 0.74 0.52 0.56 0.66 0.81 0.72 0.58 0.55 0.64 0.72
0.00 0.00 0.00 0.00 0.00 0.00 0.00 0.00 0.01 0.01 0.02 0.03 0.03 0.02 0.03 0.05 0.04 0.06 0.06 0.05 0.03 0.03 0.08 0.06 0.18 0.22 0.24 0.25 0.24 0.30 0.36 0.38 0.50 0.90 0.94 0.77 0.80 0.90 1.28 1.05 1.07 1.18 1.30
0.00 0.00 0.00 0.00 0.01 0.01 0.00 0.00 0.01 0.02 0.03 0.05 0.06 0.03 0.02 0.04 0.07 0.07 0.08 0.05 0.04 0.04 0.06 0.06 0.05 0.07 0.10 0.19 0.23 0.23 0.29 0.35 0.35 0.50 0.73 0.86 0.82 0.95 1.23 1.84 1.76 1.43 1.39
0.00 0.00 0.00 0.00 0.00 0.00 0.00 0.00 0.01 0.02 0.02 0.03 0.04 0.05 0.04 0.03 0.06 0.08 0.10 0.14 0.09 0.02 0.04 0.05 0.08 0.10 0.12 0.18 0.24 0.34 0.38 0.41 0.33 0.32 0.39 0.56 0.78 0.88 1.08 1.40 2.08 2.63 2.32
0.00 0.00 0.00 0.00 0.00 0.00 0.00 0.00 0.01 0.01 0.01 0.03 0.05 0.04 0.06 0.05 0.05 0.05 0.07 0.14 0.28 0.16 0.03 0.00 0.02 0.07 0.12 0.16 0.19 0.31 0.38 0.45 0.44 0.38 0.37 0.33 0.36 0.44 0.62 0.94 1.26 1.45 1.55
0.00 0.00 0.00 0.00 0.01 0.00 0.00 0.00 0.01 0.01 0.03 0.03 0.03 0.02 0.03 0.03 0.01 0.02 0.04 0.07 0.16 0.30 0.27 0.06 0.03 0.04 0.06 0.13 0.22 0.40 0.46 0.45 0.47 0.55 0.63 0.63 0.46 0.37 0.32 0.34 0.47 0.58 0.68
0.00 0.00 0.00 0.01 0.01 0.01 0.00 0.00 0.00 0.02 0.03 0.02 0.02 0.05 0.04 0.05 0.07 0.05 0.04 0.04 0.05 0.12 0.16 0.13 0.11 0.10 0.12 0.05 0.08 0.19 0.32 0.44 0.53 0.60 0.68 0.86 0.87 0.73 0.61 0.54 0.42 0.38 0.40
0.00 0.00 0.00 0.00 0.00 0.00 0.00 0.01 0.03 0.04 0.05 0.07 0.05 0.11 0.16 0.17 0.13 0.07 0.07 0.13 0.16 0.09 0.10 0.08 0.10 0.16 0.14 0.14 0.13 0.22 0.31 0.30 0.43 0.53 0.47 0.66 0.81 0.73 0.78 0.91 0.95 0.98 0.82
0.00 0.00 0.00 0.00 0.00 0.00 0.00 0.01 0.04 0.06 0.08 0.15 0.15 0.21 0.31 0.32 0.36 0.44 0.38 0.20 0.23 0.25 0.18 0.11 0.08 0.07 0.18 0.21 0.30 0.46 0.45 0.45 0.73 0.73 0.46 0.45 0.61 0.79 0.78 0.78 0.75 0.75 0.74
0.00 0.00 0.00 0.00 0.00 0.00 0.00 0.00 0.01 0.04 0.06 0.12 0.11 0.17 0.20 0.25 0.38 0.41 0.53 0.66 0.45 0.26 0.26 0.23 0.13 0.11 0.10 0.21 0.28 0.42 0.71 0.65 0.69 0.81 0.77 0.80 0.85 0.71 0.72 0.66 0.69 0.69 0.56
0.00 0.00 0.00 0.00 0.00 0.00 0.00 0.00 0.00 0.01 0.03 0.04 0.03 0.02 0.04 0.06 0.10 0.20 0.26 0.36 0.46 0.43 0.36 0.33 0.30 0.22 0.20 0.16 0.37 0.47 0.48 0.63 0.75 0.77 0.83 0.70 0.71 0.93 0.88 0.71 0.66 0.65 0.68
0.00 0.00 0.00 0.00 0.00 0.00 0.00 0.00 0.00 0.00 0.01 0.02 0.01 0.01 0.00 0.00 0.01 0.03 0.06 0.14 0.25 0.36 0.32 0.31 0.44 0.45 0.36 0.33 0.27 0.44 0.57 0.49 0.51 0.69 1.03 1.02 0.87 0.82 0.97 1.08 1.09 0.93 0.73
0.00 0.00 0.00 0.00 0.00 0.00 0.00 0.00 0.00 0.00 0.00 0.01 0.00 0.00 0.00 0.00 0.00 0.00 0.01 0.01 0.04 0.10 0.25 0.29 0.25 0.37 0.48 0.50 0.44 0.32 0.45 0.69 0.68 0.59 0.64 1.03 1.14 1.11 1.01 0.90 0.94 0.93 0.96
0.00 0.00 0.00 0.00 0.00 0.00 0.00 0.00 0.00 0.00 0.00 0.00 0.00 0.00 0.00 0.00 0.00 0.00 0.00 0.00 0.00 0.02 0.05 0.13 0.22 0.26 0.37 0.41 0.44 0.53 0.44 0.49 0.67 0.63 0.62 0.79 0.90 1.15 1.25 1.14 0.96 0.95 0.93
0.00 0.00 0.00 0.00 0.00 0.00 0.00 0.00 0.00 0.00 0.00 0.00 0.00 0.00 0.00 0.00 0.00 0.00 0.00 0.00 0.00 0.00 0.00 0.01 0.04 0.06 0.09 0.16 0.26 0.29 0.36 0.41 0.45 0.54 0.53 0.70 0.83 1.05 1.14 1.14 1.11 1.05 1.09
0.00 0.00 0.00 0.00 0.00 0.00 0.00 0.01 0.00 0.00 0.00 0.00 0.00 0.00 0.00 0.00 0.00 0.00 0.00 0.00 0.00 0.00 0.00 0.00 0.00 0.01 0.01 0.02 0.05 0.12 0.19 0.27 0.41 0.46 0.48 0.57 0.61 0.70 0.83 0.88 0.90 0.89 0.99

GFSMA_prec_precacc24_177.txt.gz
Total_Precipitation_Accumulation
0.00 0.00 0.00 0.00 0.00 0.00 0.00 0.00 0.00 0.00 0.00 0.00 0.00 0.00 0.00 0.01 0.05 0.05 0.04 0.15 0.31 0.14 0.17 0.21 0.21 0.22 0.15 0.13 0.07 0.06 0.07 0.10 0.14 0.22 0.23 0.15 0.14 0.11 0.19 0.32 0.40 0.40 0.49
0.00 0.00 0.00 0.00 0.00 0.00 0.00 0.00 0.00 0.00 0.00 0.00 0.00 0.00 0.00 0.00 0.01 0.05 0.09 0.09 0.26 0.24 0.12 0.16 0.20 0.22 0.20 0.19 0.13 0.06 0.08 0.07 0.10 0.16 0.16 0.23 0.26 0.17 0.12 0.16 0.31 0.30 0.36
0.00 0.00 0.00 0.00 0.00 0.00 0.00 0.00 0.00 0.00 0.00 0.00 0.00 0.00 0.00 0.00 0.00 0.01 0.08 0.06 0.08 0.24 0.14 0.11 0.10 0.13 0.20 0.25 0.20 0.10 0.09 0.08 0.07 0.11 0.11 0.21 0.38 0.28 0.17 0.13 0.16 0.22 0.28
0.00 0.00 0.00 0.00 0.00 0.00 0.00 0.00 0.00 0.00 0.00 0.00 0.00 0.00 0.00 0.00 0.00 0.00 0.01 0.05 0.01 0.05 0.10 0.09 0.13 0.19 0.16 0.14 0.20 0.19 0.20 0.12 0.08 0.10 0.14 0.23 0.41 0.41 0.32 0.19 0.12 0.17 0.17
0.00 0.00 0.00 0.00 0.00 0.00 0.00 0.00 0.00 0.00 0.00 0.00 0.00 0.00 0.00 0.00 0.00 0.00 0.01 0.00 0.01 0.00 0.01 0.10 0.14 0.17 0.18 0.21 0.21 0.23 0.31 0.40 0.23 0.21 0.21 0.47 0.47 0.52 0.60 0.38 0.18 0.15 0.16
0.00 0.00 0.00 0.00 0.00 0.00 0.00 0.00 0.00 0.00 0.00 0.00 0.00 0.00 0.00 0.00 0.00 0.00 0.00 0.00 0.01 0.02 0.01 0.05 0.25 0.30 0.27 0.25 0.31 0.32 0.32 0.37 0.36 0.36 0.30 0.38 0.54 0.60 0.77 0.70 0.36 0.20 0.17
0.00 0.00 0.00 0.00 0.00 0.00 0.00 0.00 0.00 0.00 0.00 0.00 0.00 0.00 0.00 0.00 0.00 0.00 0.00 0.00 0.00 0.01 0.04 0.08 0.16 0.32 0.31 0.36 0.37 0.43 0.47 0.38 0.35 0.40 0.45 0.37 0.49 0.57 0.69 0.86 0.74 0.47 0.24
0.00 0.00 0.00 0.00 0.00 0.00 0.00 0.00 0.00 0.00 0.00 0.00 0.01 0.01 0.00 0.00 0.00 0.00 0.00 0.00 0.00 0.00 0.01 0.04 0.10 0.18 0.21 0.29 0.39 0.53 0.58 0.55 0.46 0.43 0.59 0.63 0.64 0.52 0.50 0.66 0.87 0.83 0.51
0.00 0.00 0.00 0.00 0.00 0.00 0.00 0.00 0.00 0.01 0.01 0.00 0.01 0.04 0.04 0.02 0.00 0.00 0.00 0.00 0.00 0.00 0.02 0.06 0.07 0.08 0.14 0.25 0.31 0.38 0.42 0.45 0.52 0.46 0.58 0.69 0.66 0.44 0.43 0.52 0.62 0.77 0.99
0.00 0.00 0.00 0.00 0.00 0.00 0.00 0.00 0.00 0.01 0.02 0.01 0.00 0.02 0.04 0.07 0.07 0.02 0.00 0.00 0.01 0.02 0.02 0.04 0.06 0.04 0.12 0.28 0.35 0.37 0.42 0.53 0.47 0.43 0.49 0.75 0.66 0.49 0.30 0.29 0.41 0.51 0.70
0.00 0.00 0.00 0.00 0.00 0.00 0.00 0.00 0.01 0.01 0.02 0.02 0.02 0.02 0.02 0.01 0.02 0.04 0.01 0.00 0.00 0.01 0.02 0.02 0.02 0.04 0.07 0.14 0.31 0.47 0.50 0.65 0.87 0.73 0.52 0.57 0.67 0.82 0.73 0.58 0.56 0.66 0.88
0.00 0.00 0.00 0.00 0.00 0.00 0.00 0.00 0.01 0.01 0.01 0.03 0.02 0.02 0.03 0.05 0.04 0.05 0.05 0.02 0.01 0.00 0.01 0.02 0.02 0.01 0.04 0.07 0.09 0.20 0.33 0.36 0.49 0.89 0.94 0.78 0.80 0.91 1.29 1.06 1.08 1.19 1.31
0.00 0.00 0.00 0.00 0.00 0.00 0.00 0.00 0.01 0.01 0.02 0.03 0.04 0.02 0.01 0.04 0.07 0.06 0.07 0.04 0.01 0.00 0.00 0.01 0.02 0.01 0.01 0.05 0.07 0.07 0.18 0.25 0.31 0.49 0.72 0.86 0.82 0.96 1.24 1.85 1.77 1.44 1.39
0.00 0.00 0.00 0.00 0.00 0.00 0.00 0.00 0.01 0.01 0.01 0.01 0.03 0.03 0.03 0.03 0.05 0.07 0.09 0.09 0.05 0.01 0.00 0.00 0.02 0.05 0.04 0.05 0.08 0.14 0.18 0.19 0.14 0.25 0.38 0.56 0.79 0.89 1.09 1.41 2.09 2.64 2.33
0.00 0.00 0.00 0.00 0.00 0.00 0.00 0.00 0.00 0.01 0.00 0.00 0.01 0.01 0.02 0.02 0.03 0.04 0.06 0.09 0.13 0.08 0.02 0.00 0.00 0.02 0.07 0.09 0.10 0.13 0.18 0.25 0.25 0.22 0.28 0.31 0.36 0.45 0.63 0.95 1.27 1.46 1.55
0.00 0.00 0.00 0.00 0.00 0.00 0.00 0.00 0.00 0.00 0.00 0.00 0.00 0.00 0.01 0.01 0.01 0.01 0.02 0.05 0.08 0.12 0.08 0.02 0.02 0.03 0.04 0.09 0.17 0.21 0.29 0.31 0.34 0.41 0.48 0.49 0.43 0.38 0.33 0.35 0.48 0.60 0.69
0.00 0.00 0.00 0.00 0.00 0.00 0.00 0.00 0.00 0.00 0.00 0.00 0.00 0.01 0.01 0.01 0.01 0.01 0.01 0.03 0.03 0.06 0.08 0.04 0.08 0.09 0.11 0.04 0.06 0.10 0.13 0.19 0.33 0.40 0.49 0.67 0.75 0.71 0.62 0.54 0.43 0.39 0.41
0.00 0.00 0.00 0.00 0.00 0.00 0.00 0.00 0.01 0.00 0.01 0.01 0.01 0.02 0.04 0.06 0.05 0.03 0.04 0.09 0.10 0.07 0.06 0.07 0.08 0.12 0.11 0.12 0.11 0.15 0.11 0.08 0.06 0.16 0.18 0.46 0.69 0.66 0.77 0.91 0.95 0.98 0.82
0.00 0.00 0.00 0.00 0.00 0.00 0.00 0.00 0.00 0.00 0.00 0.01 0.03 0.04 0.08 0.14 0.17 0.26 0.21 0.11 0.11 0.15 0.13 0.08 0.07 0.06 0.14 0.19 0.21 0.22 0.22 0.16 0.08 0.15 0.11 0.18 0.42 0.63 0.64 0.72 0.71 0.68 0.66
0.00 0.00 0.00 0.00 0.00 0.00 0.00 0.00 0.00 0.00 0.00 0.00 0.01 0.03 0.05 0.10 0.20 0.28 0.37 0.43 0.33 0.21 0.21 0.19 0.12 0.11 0.09 0.19 0.25 0.32 0.39 0.31 0.23 0.15 0.18 0.20 0.32 0.43 0.53 0.59 0.66 0.66 0.53
0.00 0.00 0.00 0.00 0.00 0.00 0.00 0.00 0.00 0.00 0.01 0.00 0.00 0.00 0.01 0.02 0.06 0.17 0.25 0.34 0.42 0.41 0.35 0.33 0.30 0.22 0.20 0.15 0.31 0.40 0.40 0.47 0.47 0.32 0.19 0.11 0.15 0.39 0.56 0.55 0.62 0.63 0.66
0.00 0.00 0.00 0.00 0.00 0.00 0.00 0.00 0.00 0.00 0.01 0.01 0.00 0.00 0.00 0.00 0.00 0.01 0.05 0.14 0.24 0.36 0.31 0.30 0.43 0.44 0.35 0.32 0.26 0.42 0.49 0.35 0.37 0.46 0.58 0.40 0.18 0.21 0.43 0.75 0.89 0.88 0.70
0.00 0.00 0.00 0.00 0.00 0.00 0.00 0.00 0.00 0.00 0.00 0.01 0.00 0.00 0.00 0.00 0.00 0.00 0.00 0.01 0.03 0.10 0.24 0.28 0.24 0.36 0.46 0.48 0.42 0.29 0.41 0.61 0.56 0.42 0.41 0.59 0.58 0.48 0.37 0.44 0.73 0.86 0.91
0.00 0.00 0.00 0.00 0.00 0.00 0.00 0.00 0.00 0.00 0.00 0.00 0.00 0.00 0.00 0.00 0.00 0.00 0.00 0.00 0.00 0.01 0.04 0.11 0.19 0.22 0.31 0.36 0.39 0.46 0.37 0.42 0.62 0.53 0.41 0.39 0.42 0.61 0.74 0.66 0.69 0.83 0.83
0.00 0.00 0.00 0.00 0.00 0.00 0.00 0.00 0.00 0.00 0.00 0.00 0.00 0.00 0.00 0.00 0.00 0.00 0.00 0.00 0.00 0.00 0.00 0.01 0.04 0.05 0.05 0.07 0.16 0.20 0.26 0.28 0.31 0.40 0.37 0.43 0.43 0.49 0.48 0.58 0.77 0.78 0.88
0.00 0.00 0.00 0.00 0.00 0.00 0.00 0.01 0.00 0.00 0.00 0.00 0.00 0.00 0.00 0.00 0.00 0.00 0.00 0.00 0.00 0.00 0.00 0.00 0.00 0.01 0.01 0.01 0.01 0.06 0.13 0.19 0.27 0.29 0.31 0.34 0.35 0.39 0.47 0.45 0.44 0.55 0.69

GFSMA_prec_precacc24_183.txt.gz
Total_Precipitation_Accumulation
0.00 0.00 0.00 0.00 0.00 0.00 0.00 0.00 0.00 0.00 0.00 0.00 0.00 0.00 0.00 0.00 0.00 0.00 0.00 0.00 0.00 0.00 0.00 0.05 0.10 0.14 0.11 0.08 0.04 0.06 0.08 0.10 0.12 0.16 0.16 0.16 0.19 0.18 0.17 0.22 0.27 0.34 0.50
0.00 0.00 0.00 0.00 0.00 0.00 0.00 0.00 0.00 0.00 0.00 0.00 0.00 0.00 0.00 0.00 0.00 0.00 0.00 0.00 0.00 0.00 0.00 0.02 0.05 0.09 0.14 0.17 0.14 0.08 0.10 0.08 0.11 0.15 0.12 0.20 0.27 0.23 0.18 0.19 0.30 0.31 0.39
0.00 0.00 0.00 0.00 0.00 0.00 0.00 0.00 0.00 0.00 0.00 0.00 0.00 0.00 0.00 0.00 0.00 0.00 0.00 0.00 0.00 0.00 0.00 0.00 0.01 0.02 0.08 0.20 0.22 0.12 0.12 0.10 0.09 0.12 0.12 0.20 0.38 0.31 0.22 0.20 0.26 0.32 0.36
0.00 0.00 0.00 0.00 0.00 0.00 0.00 0.00 0.00 0.00 0.00 0.00 0.00 0.00 0.00 0.00 0.00 0.00 0.00 0.00 0.00 0.00 0.00 0.00 0.00 0.00 0.03 0.07 0.18 0.22 0.25 0.16 0.12 0.14 0.17 0.25 0.42 0.44 0.37 0.25 0.22 0.29 0.29
0.00 0.00 0.00 0.00 0.00 0.00 0.00 0.00 0.00 0.00 0.00 0.00 0.00 0.00 0.00 0.00 0.00 0.00 0.00 0.00 0.00 0.00 0.00 0.00 0.00 0.00 0.01 0.05 0.11 0.23 0.35 0.43 0.27 0.27 0.28 0.52 0.50 0.51 0.61 0.53 0.33 0.26 0.26
0.00 0.00 0.00 0.00 0.00 0.00 0.00 0.00 0.00 0.00 0.00 0.00 0.00 0.00 0.00 0.00 0.00 0.00 0.00 0.00 0.00 0.00 0.00 0.00 0.00 0.00 0.00 0.01 0.08 0.20 0.32 0.43 0.42 0.45 0.37 0.42 0.57 0.59 0.67 0.71 0.54 0.37 0.33
0.00 0.00 0.00 0.00 0.00 0.00 0.00 0.00 0.00 0.00 0.00 0.00 0.00 0.00 0.00 0.00 0.00 0.00 0.00 0.00 0.00 0.00 0.00 0.00 0.00 0.00 0.01 0.02 0.05 0.21 0.35 0.37 0.40 0.46 0.49 0.40 0.51 0.57 0.64 0.78 0.76 0.73 0.61
0.00 0.00 0.00 0.00 0.00 0.00 0.00 0.00 0.00 0.00 0.00 0.00 0.00 0.00 0.00 0.00 0.00 0.00 0.00 0.00 0.00 0.00 0.00 0.00 0.00 0.00 0.00 0.01 0.06 0.16 0.29 0.39 0.43 0.47 0.62 0.65 0.65 0.53 0.50 0.63 0.82 0.80 0.81
0.00 0.00 0.00 0.00 0.00 0.00 0.00 0.00 0.00 0.00 0.00 0.00 0.00 0.02 0.03 0.01 0.00 0.00 0.00 0.00 0.00 0.00 0.00 0.00 0.00 0.00 0.01 0.01 0.03 0.11 0.19 0.27 0.42 0.45 0.61 0.71 0.68 0.45 0.44 0.50 0.61 0.74 1.04
0.00 0.00 0.00 0.00 0.00 0.00 0.00 0.00 0.00 0.00 0.00 0.00 0.00 0.01 0.02 0.04 0.05 0.01 0.00 0.00 0.00 0.00 0.00 0.00 0.00 0.00 0.00 0.01 0.03 0.08 0.15 0.17 0.23 0.31 0.44 0.74 0.69 0.51 0.31 0.30 0.42 0.51 0.68
0.00 0.00 0.00 0.00 0.00 0.00 0.00 0.00 0.00 0.00 0.01 0.01 0.01 0.01 0.01 0.00 0.01 0.03 0.01 0.00 0.00 0.00 0.00 0.00 0.00 0.00 0.00 0.01 0.03 0.08 0.14 0.16 0.32 0.44 0.38 0.48 0.66 0.84 0.72 0.60 0.57 0.67 0.88
0.00 0.00 0.00 0.00 0.00 0.00 0.00 0.00 0.00 0.00 0.00 0.01 0.01 0.01 0.02 0.03 0.03 0.04 0.03 0.01 0.00 0.00 0.00 0.00 0.00 0.00 0.00 0.00 0.03 0.08 0.12 0.08 0.11 0.39 0.62 0.59 0.67 0.80 1.18 1.01 1.09 1.22 1.35
0.00 0.00 0.00 0.00 0.00 0.00 0.00 0.00 0.00 0.00 0.00 0.00 0.01 0.01 0.01 0.01 0.02 0.03 0.03 0.02 0.00 0.00 0.00 0.00 0.00 0.00 0.00 0.00 0.01 0.03 0.07 0.07 0.03 0.05 0.12 0.29 0.51 0.79 1.09 1.75 1.74 1.47 1.43
0.00 0.00 0.00 0.00 0.00 0.00 0.00 0.00 0.00 0.00 0.00 0.00 0.00 0.00 0.01 0.01 0.01 0.03 0.04 0.05 0.03 0.00 0.00 0.00 0.00 0.00 0.00 0.00 0.02 0.04 0.07 0.09 0.03 0.03 0.05 0.09 0.42 0.57 0.92 1.29 2.03 2.62 2.33
0.00 0.00 0.00 0.00 0.00 0.00 0.00 0.00 0.00 0.00 0.00 0.00 0.00 0.00 0.00 0.01 0.00 0.01 0.02 0.04 0.08 0.05 0.01 0.00 0.00 0.00 0.00 0.00 0.02 0.02 0.03 0.08 0.04 0.03 0.06 0.07 0.07 0.14 0.38 0.72 1.10 1.38 1.54
0.00 0.00 0.00 0.00 0.00 0.00 0.00 0.00 0.00 0.00 0.00 0.00 0.00 0.00 0.00 0.00 0.00 0.00 0.01 0.01 0.03 0.06 0.06 0.00 0.00 0.00 0.00 0.00 0.03 0.03 0.09 0.11 0.07 0.04 0.07 0.09 0.09 0.09 0.08 0.11 0.24 0.42 0.60
0.00 0.00 0.00 0.00 0.00 0.00 0.00 0.00 0.00 0.00 0.00 0.00 0.00 0.00 0.00 0.00 0.00 0.00 0.00 0.01 0.01 0.03 0.03 0.00 0.00 0.00 0.01 0.01 0.05 0.07 0.07 0.04 0.05 0.06 0.06 0.10 0.15 0.17 0.18 0.13 0.13 0.20 0.27
0.00 0.00 0.00 0.00 0.00 0.00 0.00 0.00 0.00 0.00 0.00 0.00 0.00 0.00 0.00 0.00 0.00 0.00 0.01 0.01 0.01 0.01 0.02 0.02 0.00 0.00 0.02 0.03 0.06 0.11 0.10 0.08 0.04 0.08 0.07 0.10 0.15 0.16 0.19 0.23 0.21 0.46 0.51
0.00 0.00 0.00 0.00 0.00 0.00 0.00 0.00 0.00 0.00 0.00 0.00 0.00 0.00 0.00 0.00 0.00 0.01 0.01 0.01 0.01 0.00 0.01 0.02 0.01 0.01 0.04 0.08 0.08 0.12 0.18 0.13 0.07 0.12 0.09 0.09 0.17 0.20 0.19 0.23 0.21 0.25 0.36
0.00 0.00 0.00 0.00 0.00 0.00 0.00 0.00 0.00 0.00 0.00 0.00 0.00 0.00 0.00 0.00 0.00 0.01 0.01 0.02 0.01 0.01 0.00 0.02 0.05 0.04 0.04 0.10 0.15 0.14 0.22 0.24 0.19 0.11 0.11 0.13 0.13 0.16 0.22 0.21 0.26 0.32 0.25
0.00 0.00 0.00 0.00 0.00 0.00 0.00 0.00 0.00 0.00 0.00 0.00 0.00 0.00 0.00 0.00 0.00 0.00 0.01 0.02 0.01 0.01 0.02 0.03 0.07 0.10 0.11 0.09 0.22 0.31 0.28 0.34 0.39 0.28 0.17 0.08 0.08 0.13 0.15 0.18 0.22 0.23 0.30
0.00 0.00 0.00 0.00 0.00 0.00 0.00 0.00 0.00 0.00 0.01 0.01 0.00 0.00 0.00 0.00 0.00 0.00 0.00 0.01 0.02 0.02 0.04 0.06 0.16 0.21 0.24 0.25 0.17 0.36 0.46 0.33 0.35 0.45 0.54 0.35 0.14 0.13 0.22 0.29 0.28 0.26 0.22
0.01 0.00 0.00 0.00 0.00 0.00 0.00 0.00 0.00 0.00 0.00 0.00 0.00 0.00 0.00 0.00 0.00 0.00 0.00 0.00 0.00 0.01 0.04 0.07 0.09 0.21 0.31 0.36 0.35 0.24 0.33 0.54 0.51 0.38 0.36 0.54 0.55 0.44 0.30 0.24 0.31 0.25 0.24
0.00 0.00 0.00 0.00 0.00 0.00 0.00 0.00 0.00 0.00 0.00 0.00 0.00 0.00 0.00 0.00 0.00 0.00 0.00 0.00 0.00 0.00 0.02 0.04 0.08 0.09 0.16 0.26 0.30 0.36 0.33 0.38 0.56 0.45 0.37 0.36 0.38 0.53 0.65 0.49 0.31 0.30 0.31
0.00 0.00 0.00 0.00 0.00 0.00 0.00 0.00 0.00 0.00 0.00 0.00 0.00 0.00 0.00 0.00 0.00 0.00 0.00 0.00 0.00 0.00 0.00 0.01 0.02 0.04 0.04 0.05 0.12 0.17 0.21 0.24 0.25 0.29 0.27 0.35 0.34 0.36 0.36 0.39 0.44 0.37 0.32
0.00 0.00 0.00 0.00 0.00 0.00 0.00 0.00 0.00 0.00 0.00 0.00 0.00 0.00 0.00 0.00 0.00 0.00 0.00 0.00 0.00 0.00 0.00 0.00 0.00 0.01 0.01 0.01 0.01 0.05 0.10 0.13 0.17 0.16 0.15 0.20 0.23 0.25 0.31 0.24 0.17 0.21 0.25